Location: ????? ???????
(25.7275°N, 32.5929°E)
Time: 11:15:47
(UTC+00:00)

NOSS 3-2 (A) - Pass Details

Date: 02 March 2021
Orbit: 780 x 1427 km, 63.4° (Epoch: 31 March)

Event Time Altitude Azimuth Distance (km) Brightness Sun altitude
Rises 17:12:59 0° 184° (S) 3,246 6.3 -19.0°
Reaches altitude 10° 17:15:31 10° 175° (S) 2,328 5.4 -19.6°
Enters shadow 17:19:18 32° 132° (SE) 1,346 3.8 -20.5°
